Wildwood, NJ

1:48 AM EDT on May 21, 2018 (GMT -0400)
Cape May County

Weather History for KWWD - November, 2011

Change the Weather History Date:

Tuesday, November 15, 2011

  Actual Average Record
Temperature  
Mean Temperature 64 °F -  
Max Temperature 68 °F 52 °F 68 °F (2001)
Min Temperature 59 °F 38 °F 26 °F (1996)
Degree Days  
Heating Degree Days 2    
Growing Degree Days 14 (Base 50)    
Moisture  
Dew Point 53 °F    
Average Humidity 69    
Maximum Humidity 77    
Minimum Humidity 59    
Precipitation  
Precipitation 0.00 in - - ()
Sea Level Pressure  
Sea Level Pressure 29.91 in    
Wind  
Wind Speed 11 mph (WSW)    
Max Wind Speed 18 mph    
Max Gust Speed 25 mph    
Visibility 10 miles    
Events      
Averages and records for this station are not official NWS values.
T = Trace of Precipitation, MM = Missing Value Source: NWS Daily Summary

Daily Weather History Graph

Daily Weather History Graph

Search for Another Location

Airport or City:

Astronomy

Nov. 15, 2011 Rise Set
Actual Time 6:42 AM EST 4:45 PM EST
Civil Twilight 6:13 AM EST 5:14 PM EST
Nautical Twilight 5:41 AM EST 5:46 PM EST
Astronomical Twilight 5:09 AM EST 6:18 PM EST
Moon 8:52 PM EST (11/15) 10:39 AM EST (11/15)
Length of Visible Light 11h 00m
Length of Day
10h 03m
Waning Gibbous, 79% of the Moon is Illuminated
Nov 15
Waning Gibbous
Nov 18
Last Quarter
Nov 25
New
Dec 2
First Quarter
Dec 10
Full

Hourly Weather History & Observations

Time (EST) Temp. Dew Point Humidity Pressure Visibility Wind Dir Wind Speed Gust Speed Precip Events Conditions
12:15 AM 64.4 °F 51.8 °F 64% 29.85 in 10.0 mi SSW 16.1 mph 24.2 mph N/A   Clear
12:35 AM 64.4 °F 51.8 °F 64% 29.84 in 10.0 mi SSW 15.0 mph 24.2 mph N/A   Clear
12:55 AM 64.4 °F 51.8 °F 64% 29.84 in 10.0 mi SSW 15.0 mph - N/A   Clear
1:15 AM 64.4 °F 53.6 °F 68% 29.84 in 10.0 mi SSW 16.1 mph 23.0 mph N/A   Clear
1:35 AM 64.4 °F 53.6 °F 68% 29.85 in 10.0 mi SW 15.0 mph 21.9 mph N/A   Clear
1:55 AM 64.4 °F 53.6 °F 68% 29.85 in 10.0 mi SW 15.0 mph 23.0 mph N/A   Clear
2:35 AM 64.4 °F 53.6 °F 68% 29.85 in 10.0 mi SW 18.4 mph 25.3 mph N/A   Clear
2:55 AM 64.4 °F 53.6 °F 68% 29.85 in 10.0 mi SW 17.3 mph 24.2 mph N/A   Clear
3:15 AM 64.4 °F 53.6 °F 68% 29.85 in 10.0 mi SW 16.1 mph 21.9 mph N/A   Clear
3:35 AM 64.4 °F 53.6 °F 68% 29.84 in 10.0 mi SW 13.8 mph 23.0 mph N/A   Clear
3:55 AM 64.4 °F 53.6 °F 68% 29.84 in 10.0 mi SSW 18.4 mph 24.2 mph N/A   Clear
4:15 AM 64.4 °F 53.6 °F 68% 29.84 in 10.0 mi SW 17.3 mph 24.2 mph N/A   Clear
4:35 AM 64.4 °F 53.6 °F 68% 29.84 in 10.0 mi SSW 18.4 mph 24.2 mph N/A   Clear
4:55 AM 64.4 °F 53.6 °F 68% 29.84 in 10.0 mi SW 16.1 mph - N/A   Clear
5:35 AM 62.6 °F 51.8 °F 68% 29.88 in 10.0 mi NW 9.2 mph 19.6 mph N/A   Clear
5:55 AM 62.6 °F 51.8 °F 68% 29.88 in 10.0 mi WNW 5.8 mph - N/A   Clear
6:15 AM 60.8 °F 51.8 °F 72% 29.88 in 10.0 mi WSW 5.8 mph - N/A   Clear
6:35 AM 60.8 °F 51.8 °F 72% 29.88 in 10.0 mi West 4.6 mph - N/A   Clear
6:55 AM 60.8 °F 53.6 °F 77% 29.90 in 10.0 mi West 5.8 mph - N/A   Clear
8:15 AM 62.6 °F 53.6 °F 72% 29.91 in 10.0 mi SW 3.5 mph - N/A   Clear
8:35 AM 62.6 °F 53.6 °F 72% 29.91 in 10.0 mi SW 5.8 mph - N/A   Clear
8:55 AM 64.4 °F 53.6 °F 68% 29.91 in 10.0 mi SSW 8.1 mph - N/A   Clear
9:15 AM 64.4 °F 53.6 °F 68% 29.91 in 10.0 mi SW 10.4 mph - N/A   Clear
9:35 AM 64.4 °F 53.6 °F 68% 29.92 in 10.0 mi SW 10.4 mph - N/A   Clear
10:15 AM 66.2 °F 55.4 °F 68% 29.91 in 10.0 mi SW 10.4 mph - N/A   Clear
10:35 AM 66.2 °F 55.4 °F 68% 29.91 in 10.0 mi SW 10.4 mph - N/A   Clear
10:55 AM 68.0 °F 55.4 °F 64% 29.91 in 10.0 mi WSW 10.4 mph - N/A   Clear
11:15 AM 68.0 °F 55.4 °F 64% 29.91 in 10.0 mi SW 12.7 mph 18.4 mph N/A   Partly Cloudy
11:35 AM 66.2 °F 55.4 °F 68% 29.90 in 10.0 mi SW 9.2 mph - N/A   Scattered Clouds
11:55 AM 66.2 °F 55.4 °F 68% 29.90 in 10.0 mi WSW 10.4 mph - N/A   Mostly Cloudy
12:55 PM 66.2 °F 55.4 °F 68% 29.90 in 10.0 mi WSW 5.8 mph - N/A   Overcast
1:15 PM 66.2 °F 55.4 °F 68% 29.89 in 10.0 mi West 4.6 mph - N/A   Overcast
1:35 PM 66.2 °F 53.6 °F 64% 29.90 in 10.0 mi West 5.8 mph - N/A   Overcast
1:55 PM 66.2 °F 53.6 °F 64% 29.91 in 10.0 mi West 6.9 mph - N/A   Mostly Cloudy
2:15 PM 64.4 °F 53.6 °F 68% 29.91 in 10.0 mi WNW 4.6 mph - N/A   Mostly Cloudy
2:35 PM 62.6 °F 53.6 °F 72% 29.92 in 10.0 mi West 3.5 mph - N/A   Overcast
2:55 PM 62.6 °F 55.4 °F 77% 29.91 in 10.0 mi Calm Calm - N/A   Overcast
3:15 PM 62.6 °F 55.4 °F 77% 29.93 in 10.0 mi West 3.5 mph - N/A   Overcast
3:35 PM 64.4 °F 53.6 °F 68% 29.93 in 10.0 mi Calm Calm - N/A   Overcast
3:55 PM 64.4 °F 53.6 °F 68% 29.93 in 10.0 mi WNW 3.5 mph - N/A   Overcast
4:15 PM 62.6 °F 53.6 °F 72% 29.94 in 10.0 mi Calm Calm - N/A   Overcast
4:35 PM 62.6 °F 51.8 °F 68% 29.94 in 10.0 mi Calm Calm - N/A   Overcast
4:55 PM 62.6 °F 51.8 °F 68% 29.95 in 10.0 mi NW 3.5 mph - N/A   Overcast
5:15 PM 62.6 °F 51.8 °F 68% 29.95 in 10.0 mi Calm Calm - N/A   Overcast
5:35 PM 59.0 °F 51.8 °F 77% 29.96 in 10.0 mi Calm Calm - N/A   Overcast
5:55 PM 60.8 °F 51.8 °F 72% 29.97 in 10.0 mi Calm Calm - N/A   Overcast
6:15 PM 59.0 °F 51.8 °F 77% 29.97 in 10.0 mi Calm Calm - N/A   Overcast
6:35 PM 59.0 °F 51.8 °F 77% 29.97 in 10.0 mi Calm Calm - N/A   Overcast
6:55 PM 60.8 °F 51.8 °F 72% 29.97 in 10.0 mi South 6.9 mph - N/A   Overcast
7:15 PM 62.6 °F 50.0 °F 63% 29.98 in 10.0 mi SSW 4.6 mph - N/A   Overcast
7:35 PM 62.6 °F 48.2 °F 59% 29.97 in 10.0 mi South 5.8 mph - N/A   Overcast
7:55 PM 62.6 °F 48.2 °F 59% 29.98 in 10.0 mi South 6.9 mph - N/A   Overcast
8:15 PM 62.6 °F 48.2 °F 59% 29.99 in 10.0 mi SW 4.6 mph - N/A   Overcast
8:35 PM 62.6 °F 48.2 °F 59% 30.00 in 10.0 mi West 8.1 mph - N/A   Overcast
8:55 PM 62.6 °F 50.0 °F 63% 29.99 in 10.0 mi West 4.6 mph - N/A   Overcast
9:15 PM 60.8 °F 51.8 °F 72% 29.99 in 10.0 mi WSW 3.5 mph - N/A   Overcast
9:35 PM 60.8 °F 53.6 °F 77% 30.00 in 10.0 mi NNW 6.9 mph - N/A   Overcast
9:55 PM 60.8 °F 51.8 °F 72% 30.01 in 10.0 mi WNW 5.8 mph - N/A   Overcast
10:15 PM 60.8 °F 51.8 °F 72% 29.99 in 10.0 mi SSW 3.5 mph - N/A   Mostly Cloudy
10:35 PM 57.2 °F 51.8 °F 82% 29.99 in 10.0 mi Calm Calm - N/A   Scattered Clouds
10:55 PM 57.2 °F 51.8 °F 82% 29.97 in 10.0 mi Calm Calm - N/A   Mostly Cloudy
11:15 PM 55.4 °F 51.8 °F 88% 29.98 in 10.0 mi Calm Calm - N/A   Scattered Clouds
11:35 PM 57.2 °F 53.6 °F 88% 29.98 in 10.0 mi Calm Calm - N/A   Mostly Cloudy
11:55 PM 57.2 °F 53.6 °F 88% 29.97 in 10.0 mi Calm Calm - N/A   Mostly Cloudy